Regional Weather Roundup
Issued by NWS

Home | Current Version | Previous Version | Text Only | Print | Product List | Glossary Off
Versions: 1 2 3 4 5 6 7 8 9 10 11 12 13 14 15 16 17 18 19 20 21 22 23 24 25 26 27 28 29 30 31 32 33 34 35 36 37 38 39 40 41 42 43 44 45 46 47 48 49 50

000
ASUS43 KLOT 180308
RWRIL

ILLINOIS REGIONAL WEATHER ROUNDUP
NATIONAL WEATHER SERVICE CHICAGO/ROMEOVILLE IL
900 PM CST FRI NOV 17 2017

NOTE: "FAIR" INDICATES FEW OR NO CLOUDS BELOW 12,000 FEET WITH NO
SIGNIFICANT WEATHER AND/OR OBSTRUCTIONS TO VISIBILITY.

* THESE STATIONS ARE NOT UNDER NWS QUALITY CONTROL. THEY ALSO MAY NOT
  REPORT WEATHER SUCH AS PRECIPITATION OR FOG.

ILZ001-002-007-009-015-016-024-180400-
NORTHWEST ILLINOIS

CITY           SKY/WX    TMP DP  RH WIND       PRES   REMARKS
MOLINE         CLOUDY    50  45  83 S8        29.55F
STERLING*        N/A    N/A N/A N/A MISG        N/A
SAVANNA*       CLOUDY    42  42  99 CALM      29.57F FOG
$$

ILZ003-004-008-010-011-017-018-180400-
NORTH CENTRAL ILLINOIS

CITY           SKY/WX    TMP DP  RH WIND       PRES   REMARKS
ROCKFORD       DRIZZLE   42  41  96 S8        29.60F FOG
FREEPORT*      CLOUDY    42  41  99 S7        29.59F FOG
ROCHELLE*      DRIZZLE   43  42  99 S8        29.59F
DE KALB*       DRIZZLE   42  42  99 S10       29.59F
PERU*          RAIN      47  44  90 S15G22    29.59F
$$

ILZ005-006-012>014-019>023-180400-
NORTHEAST ILLINOIS

CITY           SKY/WX    TMP DP  RH WIND       PRES   REMARKS
CHICAGO-OHARE  LGT RAIN  45  42  89 S12       29.59F FOG
CHICAGO-MIDWAY DRIZZLE   45  43  93 S14G21    29.61F FOG
AURORA         LGT RAIN  44  43  96 S10       29.60F FOG
LANSING*       DRIZZLE   43  42  99 S14       29.62F
JOLIET*        CLOUDY    47  45  94 S13G20    29.61F
WAUKEGAN       LGT RAIN  44  43  96 SW13      29.59F FOG
DUPAGE AIRPORT LGT RAIN  44  43  96 S14G23    29.59F FOG
KANKAKEE*      CLOUDY    45  42  90 S15G23    29.64F
WHEELING       LGT RAIN  45  44  97 S13       29.60F FOG
MORRIS*        CLOUDY    46  43  91 S18G26    29.60F
ROMEOVILLE*    RAIN      44  43  95 SW12      29.60F
NORTHERLY ISL    N/A     43  40  89 S15         N/A
$$

LMZ740>746-180400-
SOUTHERN LAKE MICHIGAN

STATION/POSITION SKY/WX   TEMP    WIND        PRES    VSBY  WAVE
                          AIR SEA DIR/SP/G                  HT/PER
                          (F)     (DEG/KT/KT) (MB)    (MI)  (FT/S)
SOUTHERN BUOY              46 50  200/ 23/ 29 1002.9F         7/ 6
HARRISON CRIB              44     190/ 23/ 25   N/A
BURNHAM HARBOR             43     170/ 12/ 14   N/A
BURNS HARBOR               43     180/ 16/ 23 1003.7F
MICHIGAN CITY              43     160/ 17/ 24   N/A
$$

ILZ025>027-034>036-040-047-049-050-058-095>099-180400-
WEST-CENTRAL ILLINOIS

CITY           SKY/WX    TMP DP  RH WIND       PRES   REMARKS
QUINCY         CLOUDY    57  51  80 S9        29.55F
GALESBURG*     CLOUDY    51  48  90 S7        29.57F
MACOMB*        CLOUDY    53  48  86 S14       29.58F
JACKSONVILLE*  CLOUDY    55  49  79 S13G20    29.60F
PITTSFIELD*    CLOUDY    55  51  85 S12       29.58F
$$

ILZ028>032-037-038-041>044-048-051>054-059>061-180400-
CENTRAL ILLINOIS

CITY           SKY/WX    TMP DP  RH WIND       PRES   REMARKS
PONTIAC        CLOUDY    47  46  99 S21G26    29.62F FOG
BLOOMINGTON    CLOUDY    47  44  90 S21       29.62F
DECATUR        CLOUDY    48  44  86 S16       29.65F
PEORIA         CLOUDY    51  48  89 S13       29.60F
LACON*         DRIZZLE   49  47  93 S14G22    29.58F
LINCOLN*       CLOUDY    49  46  87 S18G25    29.62F
SPRINGFIELD    CLOUDY    52  46  80 S20       29.63F
TAYLORVILLE    CLOUDY    49  44  82 SE14      29.64F
$$

ILZ033-039-045-046-055>057-062-063-180400-
EAST-CENTRAL ILLINOIS

CITY           SKY/WX    TMP DP  RH WIND       PRES   REMARKS
CHAMPAIGN      CLOUDY    48  43  82 S21       29.66F
DANVILLE*      CLOUDY    47  40  78 S21       29.66F
RANTOUL*       CLOUDY    48  45  90 S14G20    29.66F
MATTOON        CLOUDY    50  42  74 S10       29.69F
PARIS*         CLOUDY    47  41  79 S20       29.71F
$$

ILZ079-100>102-180400-
SOUTHWEST ILLINOIS

CITY           SKY/WX    TMP DP  RH WIND       PRES   REMARKS
ALTON          CLOUDY    57  50  77 SE14G20   29.63F
BELLEVILLE     CLOUDY    58  49  72 S8        29.64F
CAHOKIA*       CLOUDY    57  48  72 S13       29.64F
SPARTA*        CLOUDY    61  52  71 S13G21    29.69F
$$

ILZ064>066-069>071-074>076-080>082-084>086-088>090-092>094-180400-
SOUTH-CENTRAL ILLINOIS

CITY           SKY/WX    TMP DP  RH WIND       PRES   REMARKS
CARBONDALE     CLOUDY    63  52  67 S18G29    29.71F
CAIRO*         CLOUDY    63  52  68 S14G22    29.74S
EFFINGHAM*     CLOUDY    53  45  74 SE7       29.71F
MARION         CLOUDY    63  51  65 S14       29.73F
MT. VERNON     CLOUDY    55  46  71 S7        29.71F
CENTRALIA*     CLOUDY    58  48  70 S16G23    29.68F
SALEM*         CLOUDY    56  45  66 SE8       29.69F
METROPOLIS*    CLOUDY    64  51  63 S12G20    29.77R
$$

ILZ067-068-072-073-078-083-087-091-180400-
SOUTHEAST ILLINOIS

CITY           SKY/WX    TMP DP  RH WIND       PRES   REMARKS
LAWRENCEVILLE  CLOUDY    53  41  63 S16       29.75F
FLORA*         CLOUDY    56  44  64 S16G22    29.71F
FAIRFIELD*     CLOUDY    55  44  66 S7        29.72F
HARRISBURG*    CLOUDY    61  49  66 S12G17    29.74F
ROBINSON*      CLOUDY    51  40  64 S13G20    29.74F
CARMI*         CLOUDY    54  44  68 SE12      29.75F
$$

ABBREVIATIONS USED IN REMARKS
   TC - TEMPERATURE IN CELSIUS
  WCI - WIND CHILL INDEX
   HX - HEAT INDEX
  VSB - VISIBILITY
$$




USA.gov is the U.S. government's official web portal to all federal, state and local government web resources and services.